Weather History for Laramie, WY

Change the Weather History Date:

Saturday, February 23, 2013

  Actual Average Record
Temperature  
Mean Temperature 23 °F 25 °F  
Max Temperature 32 °F 37 °F 56 °F (1958)
Min Temperature 13 °F 14 °F -15 °F (2010)
Degree Days  
Heating Degree Days 42 40  
Month to date heating degree days 977 965  
Since 1 July heating degree days 5638 5980  
Cooling Degree Days 0 0  
Month to date cooling degree days 0 0  
Year to date cooling degree days 0 0  
Moisture  
Dew Point 16 °F    
Average Humidity 75    
Maximum Humidity 100    
Minimum Humidity 50    
Precipitation  
Precipitation T in 0.01 in 0.33 in (1948)
Month to date precipitation 0.07 0.27  
Year to date precipitation 0.22 0.54  
Sea Level Pressure  
Sea Level Pressure 29.71 in    
Wind  
Wind Speed 16 mph (East)    
Max Wind Speed 30 mph    
Max Gust Speed 35 mph    
Visibility 6 miles    
Events Snow    
T = Trace of Precipitation, MM = Missing Value Source: NWS Daily Summary

Daily Weather History Graph

Daily Weather History Graph

Search for Another Location

Airport:

Trip Planner

Search our weather history database for the weather conditions in past years. The results will help you decide how hot, cold, wet, or windy it might be!

Date:

Astronomy

Feb. 23, 2013 Rise Set
Actual Time 6:45 AM MST 5:46 PM MST
Civil Twilight 6:17 AM MST 6:14 PM MST
Nautical Twilight 5:45 AM MST 6:46 PM MST
Astronomical Twilight 5:13 AM MST 7:18 PM MST
Moon 3:59 PM MST (2/23) 5:10 AM MST (2/23)
Length of Visible Light 11h 56m
Length of Day
11h 00m
Waxing Gibbous, 95% of the Moon is Illuminated
Feb 23
Waxing Gibbous
Feb 25
Full
Mar 4
Last Quarter
Mar 11
New
Mar 19
First Quarter

Hourly Weather History & Observations

Time (MST) Temp. Windchill Dew Point Humidity Pressure Visibility Wind Dir Wind Speed Gust Speed Precip Events Conditions
12:53 AM 15.1 °F -1.1 °F 6.1 °F 68% 29.87 in 10.0 mi SW 17.3 mph - N/A   Clear
1:53 AM 14.0 °F -2.5 °F 5.0 °F 67% 29.85 in 10.0 mi SSW 17.3 mph - N/A   Clear
2:53 AM 16.0 °F -1.7 °F 6.1 °F 65% 29.81 in 10.0 mi WSW 21.9 mph - N/A   Clear
3:53 AM 17.1 °F 0.6 °F 7.0 °F 65% 29.79 in 10.0 mi SW 19.6 mph 26.5 mph N/A   Clear
4:53 AM 16.0 °F 0.6 °F 6.1 °F 65% 29.80 in 10.0 mi SW 16.1 mph - N/A   Clear
5:53 AM 16.0 °F 0.1 °F 6.1 °F 65% 29.83 in 10.0 mi SW 17.3 mph - N/A   Clear
6:53 AM 17.1 °F -0.6 °F 7.0 °F 65% 29.85 in 10.0 mi SW 23.0 mph - N/A   Clear
7:53 AM 19.0 °F 2.4 °F 8.1 °F 62% 29.85 in 10.0 mi SSW 21.9 mph 27.6 mph N/A   Clear
8:53 AM 21.9 °F 8.2 °F 10.9 °F 63% 29.82 in 10.0 mi SSW 16.1 mph 24.2 mph N/A   Overcast
9:53 AM 24.1 °F 12.0 °F 10.9 °F 57% 29.79 in 10.0 mi South 13.8 mph - N/A   Overcast
10:53 AM 28.0 °F 15.3 °F 12.9 °F 53% 29.73 in 10.0 mi SW 18.4 mph - N/A   Mostly Cloudy
11:53 AM 28.9 °F 15.1 °F 14.0 °F 54% 29.69 in - SSW 23.0 mph 31.1 mph N/A   Partly Cloudy
12:53 PM 28.9 °F 15.1 °F 14.0 °F 54% 29.67 in 10.0 mi SW 23.0 mph 29.9 mph N/A   Overcast
1:53 PM 30.0 °F 16.6 °F 16.0 °F 56% 29.64 in 10.0 mi SW 23.0 mph 33.4 mph N/A   Partly Cloudy
2:53 PM 32.0 °F 18.6 °F 17.1 °F 54% 29.60 in 10.0 mi SW 25.3 mph 32.2 mph N/A   Mostly Cloudy
3:53 PM 32.0 °F 21.6 °F 17.1 °F 54% 29.60 in 10.0 mi SSW 15.0 mph - N/A   Overcast
4:53 PM 30.0 °F 19.1 °F 18.0 °F 61% 29.63 in 10.0 mi SW 15.0 mph - N/A   Clear
5:53 PM 28.0 °F 17.5 °F 18.0 °F 66% 29.66 in 10.0 mi WSW 12.7 mph - N/A   Overcast
6:53 PM 25.0 °F 15.5 °F 21.0 °F 85% 29.71 in 6.0 mi NNE 9.2 mph 17.3 mph 0.00 in Snow Light Snow
7:02 PM 24.8 °F 14.0 °F 21.2 °F 86% 29.62 in 2.5 mi NE 11.5 mph - 0.00 in Snow Light Snow
7:23 PM 24.8 °F 14.0 °F 21.2 °F 86% 29.63 in 3.0 mi NE 11.5 mph - 0.00 in Snow Light Snow
7:31 PM 24.8 °F 14.6 °F 21.2 °F 86% 29.63 in 1.8 mi NE 10.4 mph - 0.00 in Snow Light Snow
7:45 PM 23.0 °F 13.1 °F 21.2 °F 93% 29.64 in 2.5 mi NE 9.2 mph - 0.00 in Snow Light Snow
7:53 PM 23.0 °F 12.4 °F 21.0 °F 92% 29.73 in 3.0 mi NE 10.4 mph - 0.00 in Snow Light Snow
8:25 PM 23.0 °F 13.1 °F 21.2 °F 93% 29.64 in 2.5 mi NNE 9.2 mph - 0.00 in Snow Light Snow
8:33 PM 23.0 °F 13.9 °F 21.2 °F 93% 29.64 in 6.0 mi ENE 8.1 mph 19.6 mph 0.00 in Snow Light Snow
8:53 PM 23.0 °F 13.1 °F 21.0 °F 92% 29.72 in 6.0 mi NE 9.2 mph - 0.00 in Snow Light Snow
9:04 PM 23.0 °F 13.1 °F 21.2 °F 93% 29.66 in 2.5 mi NE 9.2 mph - 0.00 in Snow Light Snow
9:15 PM 23.0 °F 13.9 °F 21.2 °F 93% 29.66 in 1.2 mi NE 8.1 mph - 0.00 in Snow Light Snow
9:33 PM 21.2 °F 11.7 °F 21.2 °F 100% 29.66 in 1.2 mi NE 8.1 mph - 0.00 in Snow Light Snow
9:44 PM 21.2 °F 11.7 °F 21.2 °F 100% 29.66 in 2.0 mi ENE 8.1 mph - 0.00 in Snow Light Snow
9:53 PM 21.9 °F 15.7 °F 21.0 °F 96% 29.73 in 2.5 mi ENE 4.6 mph - 0.00 in Snow Light Snow
10:09 PM 21.2 °F 10.9 °F 19.4 °F 93% 29.66 in 4.0 mi ENE 9.2 mph - 0.00 in Snow Light Snow
10:53 PM 21.0 °F 12.4 °F 19.9 °F 96% 29.70 in 3.0 mi NE 6.9 mph - 0.00 in Snow Light Snow
11:04 PM 21.2 °F 12.6 °F 19.4 °F 93% 29.65 in 3.0 mi NE 6.9 mph - 0.00 in Snow Light Snow
11:26 PM 21.2 °F 12.6 °F 19.4 °F 93% 29.65 in 2.0 mi NE 6.9 mph - 0.00 in Snow Light Snow
11:33 PM 21.2 °F 14.9 °F 19.4 °F 93% 29.65 in 3.0 mi NE 4.6 mph - 0.00 in Snow Light Snow
11:53 PM 21.9 °F 15.7 °F 19.9 °F 92% 29.70 in 2.5 mi NNE 4.6 mph - 0.00 in Snow Light Snow